Location: Unspecified
(0.0000°N, 0.0000°E)
Time: 10:39:52
(UTC+00:00)

Vanguard 2 - Pass Details

Date: 12 October 2022
Orbit: 553 x 2933 km, 32.9° (Epoch: 29 November)

Event Time Altitude Azimuth Distance (km) Brightness Sun altitude
Rises 04:42:56 0° 212° (SSW) 3,143 10.4 -15.8°
Reaches altitude 10° 04:46:19 10° 191° (S) 1,990 9.6 -14.9°
Maximum altitude 04:49:07 17° 150° (SSE) 1,491 9.5 -14.2°
Drops below altitude 10° 04:51:43 10° 109° (ESE) 1,818 10.8 -13.6°
Sets 04:54:35 0° 86° (E) 2,741 12.2 -12.9°
